Flag Weather past 2 weeks in Pensacola, Florida, U.S.A.

Now
51 °F

Passing clouds.


Feels Like: 47 °F
Forecast: 39 / 61 °F
Wind: 13 mph from Northwest

Location: Pensacola Regional Airport

Current Time: Nov 25, 2014 at 11:37:03 PM

Latest Report: Nov 25, 2014 at 10:53 PM


Visibility: 10 mi

Pressure: 30.11 "Hg

Humidity: 54%

Dew point: 35 °F

Location of PensacolaLocation

Historic Weather in Pensacola — Graph

°F

Pensacola temperature yesterday

Maximum temperature yesterday: 80 °F (at 11:53 AM)
Minimum temperature yesterday: 59 °F (at 10:53 PM)
Average temperature yesterday: 68 °F

Past Weeks' High & Low Weather Summary

 TemperatureHumidityPressure
High80 °F (Nov 24, 11:53 AM)100% (Nov 10, 11:53 PM)30.48 "Hg (Nov 10, 11:53 PM)
Low25 °F (Nov 19, 4:53 AM)20% (Nov 19, 11:53 AM)29.71 "Hg (Nov 23, 1:53 PM)
Average53 °F73%30.14 "Hg
* Reported Nov 10 9:53 PM — Nov 25 9:53 PM, Pensacola, Weather by CustomWeather, © 2014

Note: Actual official high and low records may vary slightly from our data, if they occured in-between our weather recording intervals... More about our weather records

Advertising

Pensacola weather history for previous 24 hours

 ConditionsComfort  
Time TempWeatherWind HumidityBarometerVisibility
9:53 PM
Nov 25
52 °FPassing clouds.12 mph55%30.10 "Hg10 mi
8:53 PM52 °FPassing clouds.8 mph64%30.11 "Hg10 mi
7:53 PM51 °FMostly cloudy.7 mph74%30.11 "Hg10 mi
6:53 PM52 °FLight rain. Passing clouds.12 mph64%30.11 "Hg10 mi
5:53 PM55 °FOvercast.7 mph49%30.14 "Hg10 mi
4:53 PM54 °FLight rain. Overcast.3 mph69%30.07 "Hg10 mi
3:53 PM55 °FLight rain. Overcast.No wind59%30.05 "Hg10 mi
2:53 PM55 °FPartly sunny.No wind53%30.05 "Hg10 mi
1:53 PM55 °FCloudy.7 mph53%30.05 "Hg10 mi
12:53 PM54 °FLight rain. Mostly cloudy.8 mph55%30.04 "Hg10 mi
11:53 AM54 °FOvercast.10 mph53%30.06 "Hg10 mi
10:53 AM55 °FOvercast.10 mph47%30.10 "Hg10 mi
9:53 AM54 °FOvercast.9 mph49%30.12 "Hg10 mi
8:53 AM54 °FMostly cloudy.13 mph51%30.11 "Hg10 mi
7:53 AM54 °FSunny.10 mph51%30.09 "Hg10 mi
6:53 AM54 °FOvercast.9 mph47%30.10 "Hg10 mi
5:53 AM54 °FOvercast.10 mph49%30.09 "Hg10 mi
4:53 AM54 °FMostly cloudy.14 mph47%30.07 "Hg10 mi
3:53 AM54 °FOvercast.12 mph51%30.06 "Hg10 mi
2:53 AM55 °FOvercast.17 mph55%30.05 "Hg10 mi
1:53 AM57 °FMostly cloudy.15 mph58%30.03 "Hg10 mi
12:53 AM58 °FPassing clouds.14 mph60%30.02 "Hg10 mi
11:53 PM
Nov 24
59 °FPassing clouds.13 mph64%30.02 "Hg10 mi
Weather by CustomWeather, © 2014

See weather overviewHow to use our weather pages